Mount Pleasant, MI

11:15 PM EDT on September 21, 2017 (GMT -0400)
Mount Pleasant Municipal

Weather History for KMOP - September, 2013

Change the Weather History Date:

Sunday, September 22, 2013

  Actual Average (KAMN) Record (KAMN)
Temperature  
Mean Temperature 51 °F -  
Max Temperature 57 °F 65 °F 86 °F (1970)
Min Temperature 45 °F 45 °F 30 °F (1974)
Degree Days  
Heating Degree Days 14    
Growing Degree Days 1 (Base 50)    
Moisture  
Dew Point 41 °F    
Average Humidity 71    
Maximum Humidity 88    
Minimum Humidity 51    
Precipitation  
Precipitation 0.00 in - - ()
Sea Level Pressure  
Sea Level Pressure 30.02 in    
Wind  
Wind Speed 4 mph (NW)    
Max Wind Speed 8 mph    
Max Gust Speed -    
Visibility 10 miles    
Events      
Averages and records for this station are not official NWS values.
T = Trace of Precipitation, MM = Missing Value Source: NWS Daily Summary

Daily Weather History Graph

Daily Weather History Graph

Search for Another Location

Airport or City:

Trip Planner

Search our weather history database for the weather conditions in past years. The results will help you decide how hot, cold, wet, or windy it might be!

Date:

Astronomy

Sep. 22, 2013 Rise Set
Actual Time 7:26 AM EDT 7:35 PM EDT
Civil Twilight 6:57 AM EDT 8:04 PM EDT
Nautical Twilight 6:24 AM EDT 8:37 PM EDT
Astronomical Twilight 5:49 AM EDT 9:12 PM EDT
Moon 9:17 PM EDT 10:53 AM EDT
Length of Visible Light 13h 06m
Length of Day
12h 09m
Waning Gibbous, 89% of the Moon is Illuminated
Sep 22
Waning Gibbous
Sep 26
Last Quarter
Oct 4
New
Oct 11
First Quarter
Oct 18
Full

Hourly Weather History & Observations

Time (EDT) Temp. Windchill Dew Point Humidity Pressure Visibility Wind Dir Wind Speed Gust Speed Precip Events Conditions
12:17 AM 51.1 °F - 42.4 °F 72% 29.91 in 10.0 mi NW 5.8 mph - N/A   Overcast
12:37 AM 50.9 °F - 42.6 °F 73% 29.91 in 10.0 mi NNW 3.5 mph - N/A   Overcast
12:57 AM 50.5 °F - 42.8 °F 75% 29.92 in 10.0 mi NNW 3.5 mph - N/A   Overcast
1:17 AM 50.4 °F - 43.0 °F 76% 29.92 in 10.0 mi Calm Calm - N/A   Overcast
1:37 AM 50.0 °F - 43.5 °F 78% 29.92 in 10.0 mi North 4.6 mph - N/A   Overcast
1:57 AM 49.3 °F - 43.5 °F 81% 29.93 in 10.0 mi NNE 5.8 mph - N/A   Overcast
2:17 AM 49.1 °F - 43.0 °F 79% 29.94 in 10.0 mi North 4.6 mph - N/A   Overcast
2:37 AM 48.2 °F - 42.3 °F 80% 29.95 in 10.0 mi NNW 4.6 mph - N/A   Overcast
2:57 AM 47.5 °F - 41.9 °F 81% 29.94 in 10.0 mi Calm Calm - N/A   Overcast
3:17 AM 47.3 °F - 41.4 °F 80% 29.94 in 10.0 mi NNW 5.8 mph - N/A   Overcast
3:37 AM 46.4 °F 45.2 °F 40.8 °F 81% 29.94 in 10.0 mi NNW 3.5 mph - N/A   Mostly Cloudy
3:57 AM 45.5 °F - 40.5 °F 83% 29.95 in 10.0 mi Calm Calm - N/A   Mostly Cloudy
4:17 AM 45.0 °F - 40.5 °F 84% 29.95 in 10.0 mi Calm Calm - N/A   Mostly Cloudy
4:37 AM 45.3 °F 43.0 °F 40.3 °F 83% 29.95 in 10.0 mi NW 4.6 mph - N/A   Mostly Cloudy
4:57 AM 46.4 °F 45.2 °F 40.3 °F 79% 29.96 in 10.0 mi WNW 3.5 mph - N/A   Overcast
5:17 AM 46.4 °F 45.2 °F 40.5 °F 80% 29.96 in 10.0 mi NW 3.5 mph - N/A   Overcast
5:37 AM 45.7 °F - 40.3 °F 81% 29.97 in 10.0 mi Calm Calm - N/A   Overcast
5:57 AM 45.7 °F - 40.6 °F 83% 29.97 in 10.0 mi Calm Calm - N/A   Overcast
6:17 AM 45.9 °F - 41.2 °F 84% 29.97 in 10.0 mi Calm Calm - N/A   Overcast
6:37 AM 46.2 °F - 41.7 °F 84% 29.97 in 10.0 mi Calm Calm - N/A   Overcast
6:57 AM 46.4 °F 45.2 °F 41.9 °F 84% 29.98 in 10.0 mi WNW 3.5 mph - N/A   Overcast
7:17 AM 46.4 °F 45.2 °F 41.9 °F 84% 29.99 in 10.0 mi NW 3.5 mph - N/A   Overcast
7:37 AM 46.4 °F - 42.1 °F 85% 29.99 in 10.0 mi Calm Calm - N/A   Overcast
7:57 AM 46.8 °F - 42.1 °F 84% 30.00 in 10.0 mi NW 3.5 mph - N/A   Overcast
8:17 AM 47.3 °F - 42.1 °F 82% 30.00 in 10.0 mi WNW 3.5 mph - N/A   Overcast
8:37 AM 47.7 °F - 42.1 °F 81% 30.01 in 10.0 mi NW 3.5 mph - N/A   Overcast
8:57 AM 48.2 °F - 41.9 °F 79% 30.01 in 10.0 mi Calm Calm - N/A   Overcast
9:17 AM 48.4 °F - 41.2 °F 76% 30.02 in 10.0 mi North 3.5 mph - N/A   Overcast
9:37 AM 49.1 °F - 40.8 °F 73% 30.03 in 10.0 mi NNW 5.8 mph - N/A   Overcast
9:57 AM 48.6 °F - 39.4 °F 71% 30.03 in 10.0 mi NNW 5.8 mph - N/A   Overcast
10:18 AM 49.1 °F - 40.1 °F 71% 30.03 in 10.0 mi North 8.1 mph - N/A   Overcast
10:37 AM 49.3 °F - 38.7 °F 67% 30.04 in 10.0 mi NNW 5.8 mph - N/A   Overcast
10:57 AM 49.1 °F - 37.6 °F 64% 30.05 in 10.0 mi NW 8.1 mph - N/A   Overcast
11:17 AM 49.5 °F - 38.1 °F 65% 30.05 in 10.0 mi NNW 5.8 mph - N/A   Overcast
11:37 AM 50.0 °F - 38.1 °F 64% 30.06 in 10.0 mi NNW 6.9 mph - N/A   Overcast
11:57 AM 50.0 °F - 38.7 °F 65% 30.06 in 10.0 mi NNW 6.9 mph - N/A   Overcast
12:17 PM 50.4 °F - 37.6 °F 62% 30.06 in 10.0 mi WNW 4.6 mph - N/A   Overcast
12:37 PM 51.3 °F - 37.4 °F 59% 30.06 in 10.0 mi NW 6.9 mph - N/A   Overcast
12:57 PM 51.8 °F - 37.4 °F 58% 30.06 in 10.0 mi North 6.9 mph - N/A   Overcast
1:17 PM 52.0 °F - 37.4 °F 58% 30.06 in 10.0 mi WNW 4.6 mph - N/A   Overcast
1:37 PM 53.4 °F - 38.1 °F 56% 30.06 in 10.0 mi NW 4.6 mph - N/A   Overcast
1:57 PM 52.9 °F - 37.2 °F 55% 30.05 in 10.0 mi Calm Calm - N/A   Overcast
2:17 PM 53.6 °F - 37.4 °F 54% 30.05 in 10.0 mi WNW 6.9 mph - N/A   Mostly Cloudy
2:37 PM 54.3 °F - 37.4 °F 53% 30.04 in 10.0 mi WNW 5.8 mph - N/A   Mostly Cloudy
2:57 PM 54.5 °F - 37.0 °F 52% 30.04 in 10.0 mi North 8.1 mph - N/A   Mostly Cloudy
3:17 PM 57.0 °F - 38.8 °F 51% 30.03 in 10.0 mi WNW 8.1 mph - N/A   Mostly Cloudy
3:37 PM 55.2 °F - 37.4 °F 51% 30.03 in 10.0 mi WNW 5.8 mph - N/A   Overcast
3:57 PM 55.0 °F - 38.5 °F 54% 30.03 in 10.0 mi West 4.6 mph - N/A   Overcast
4:17 PM 55.2 °F - 39.2 °F 55% 30.03 in 10.0 mi West 4.6 mph - N/A   Overcast
4:37 PM 55.2 °F - 38.5 °F 53% 30.03 in 10.0 mi WNW 5.8 mph - N/A   Overcast
4:57 PM 55.0 °F - 38.8 °F 54% 30.03 in 10.0 mi West 5.8 mph - N/A   Overcast
5:17 PM 54.9 °F - 39.4 °F 56% 30.03 in 10.0 mi NW 3.5 mph - N/A   Overcast
5:37 PM 54.9 °F - 39.6 °F 56% 30.03 in 10.0 mi WNW 3.5 mph - N/A   Overcast
5:57 PM 54.1 °F - 39.7 °F 58% 30.03 in 10.0 mi WNW 4.6 mph - N/A   Overcast
6:17 PM 54.0 °F - 40.1 °F 59% 30.03 in 10.0 mi WNW 3.5 mph - N/A   Mostly Cloudy
6:37 PM 54.5 °F - 39.9 °F 58% 30.04 in 10.0 mi West 5.8 mph - N/A   Scattered Clouds
6:57 PM 54.0 °F - 40.1 °F 59% 30.04 in 10.0 mi Calm Calm - N/A   Clear
7:07 PM 53.6 °F - 40.5 °F 61% 30.04 in 10.0 mi West 4.6 mph - N/A   Clear
7:37 PM 50.4 °F - 40.3 °F 68% 30.05 in 10.0 mi West 3.5 mph - N/A   Clear
7:57 PM 50.5 °F - 40.8 °F 69% 30.06 in 10.0 mi West 4.6 mph - N/A   Mostly Cloudy
8:17 PM 50.4 °F - 40.8 °F 70% 30.06 in 10.0 mi West 3.5 mph - N/A   Overcast
8:37 PM 50.0 °F - 40.6 °F 70% 30.06 in 10.0 mi WNW 3.5 mph - N/A   Overcast
8:57 PM 49.3 °F - 40.8 °F 73% 30.06 in 10.0 mi Calm Calm - N/A   Overcast
9:17 PM 48.4 °F - 40.8 °F 75% 30.07 in 10.0 mi Calm Calm - N/A   Overcast
9:37 PM 47.8 °F - 41.0 °F 77% 30.08 in 10.0 mi Calm Calm - N/A   Overcast
9:57 PM 47.7 °F - 42.1 °F 81% 30.08 in 10.0 mi Calm Calm - N/A   Overcast
10:17 PM 47.7 °F - 42.8 °F 83% 30.09 in 10.0 mi Calm Calm - N/A   Overcast
10:37 PM 48.2 °F - 43.7 °F 84% 30.09 in 10.0 mi Calm Calm - N/A   Overcast
10:57 PM 48.2 °F - 44.2 °F 86% 30.09 in 10.0 mi Calm Calm - N/A   Overcast
11:17 PM 48.2 °F - 44.6 °F 87% 30.09 in 10.0 mi Calm Calm - N/A   Overcast
11:37 PM 48.4 °F - 44.8 °F 87% 30.10 in 10.0 mi Calm Calm - N/A   Overcast
11:57 PM 48.4 °F - 45.0 °F 88% 30.10 in 10.0 mi Calm Calm - N/A   Overcast